Probability
3 0 0 0 0 0 0 0 0 0 0 0 0 0 0 0 0 0 0 13 16 16 35 42 42 42 35 45 48 42 39 35 32 32 35 32 32 26 23 19 23 26 19 13 16 13 10 10 13
0 0 0 0 0 0 0 0 0 0 0 0 0 0 0 0 0 0 6 13 16 23 35 39 45 39 39 39 32 35 39 32 32 32 32 29 29 29 19 16 16 23 16 13 16 13 13 3 13
0 0 0 0 0 0 0 0 0 0 0 0 0 0 0 0 0 3 3 19 19 26 29 39 52 45 39 35 32 29 32 29 29 29 29 29 29 29 23 19 19 19 16 19 19 13 13 6 6
0 0 0 0 0 0 0 0 0 0 0 0 0 0 0 0 0 6 16 23 19 29 26 32 52 42 39 35 29 29 29 26 19 23 19 23 26 26 26 19 19 16 13 13 10 16 10 10 6
0 0 0 0 0 0 0 0 0 0 0 0 0 0 0 0 3 10 16 23 23 26 29 35 45 39 35 32 29 29 26 23 19 16 19 19 23 23 29 29 29 16 16 13 13 13 13 6 6
0 0 0 0 0 0 0 0 0 0 0 0 0 0 0 3 6 10 10 16 16 23 26 23 45 42 32 32 29 29 29 23 16 16 19 19 19 23 19 26 23 19 16 16 13 13 13 6 10
0 0 0 0 0 0 0 0 0 0 0 0 0 0 0 0 0 3 10 13 16 19 19 16 23 26 32 32 32 32 23 23 23 16 16 23 29 19 23 23 26 23 16 16 16 16 10 6 6
0 0 0 0 0 0 0 0 0 0 0 0 0 0 0 0 0 3 3 10 16 19 16 16 16 19 26 23 26 26 19 19 19 19 16 13 13 19 19 23 23 23 19 19 16 13 10 3 3
0 0 0 0 0 0 0 0 0 0 0 0 0 0 0 0 0 6 10 10 13 16 13 13 16 16 16 19 16 16 13 13 13 10 6 6 3 3 13 13 13 19 19 19 19 16 6 3 3
0 0 0 0 0 0 0 0 0 0 0 0 0 0 0 0 0 6 10 10 13 13 10 6 10 13 6 13 6 3 6 0 0 3 3 0 0 0 3 3 6 13 13 16 16 10 3 0 0
0 0 0 0 0 0 0 0 0 0 0 0 0 0 0 0 0 6 6 10 13 13 6 6 10 6 6 3 3 0 0 0 0 0 0 0 0 0 0 3 3 3 3 3 3 0 0 0 0
0 0 0 0 0 0 0 0 0 0 0 0 0 0 0 0 0 0 3 6 6 10 6 10 10 6 6 3 3 3 0 0 0 0 0 0 0 0 0 0 3 3 3 3 0 0 0 0 0
0 0 0 0 0 0 0 0 0 0 0 0 0 0 0 0 0 0 0 3 0 6 6 10 6 6 6 3 3 3 0 0 0 0 0 0 0 0 0 0 0 0 0 0 0 0 0 0 0
0 0 0 0 0 0 0 0 0 0 0 0 0 0 0 0 3 3 0 0 0 0 3 10 6 6 6 6 3 3 0 0 0 0 0 0 0 0 0 0 0 0 0 0 0 0 0 0 0
0 0 0 0 0 0 0 0 0 0 0 0 0 0 0 0 0 3 3 3 0 0 0 3 6 6 6 3 0 0 0 0 0 0 0 0 0 0 0 0 0 0 0 0 0 0 0 0 0
0 0 0 0 0 0 0 0 0 0 0 0 0 0 0 0 0 0 3 3 3 0 3 0 6 3 6 3 0 0 0 0 0 0 0 0 0 0 0 0 0 0 0 0 0 0 0 0 0
0 0 0 0 0 0 0 0 0 0 0 0 0 0 0 0 0 0 0 3 3 3 3 0 0 3 3 0 0 0 0 0 0 0 0 0 0 0 0 0 0 0 0 0 0 0 0 0 0
0 0 0 0 0 0 0 0 0 0 0 0 0 0 0 0 0 0 0 3 3 3 3 3 3 0 0 0 0 0 0 0 0 0 0 0 0 0 0 0 0 0 0 0 0 0 0 0 0
0 0 0 0 0 0 0 0 0 0 0 0 0 0 0 0 0 0 0 0 3 3 3 3 0 0 0 0 0 0 0 0 0 0 0 0 0 0 0 0 0 0 0 0 0 0 0 0 0
0 0 0 0 0 0 0 0 0 0 0 0 0 0 0 0 0 0 0 0 0 3 3 0 0 0 0 0 0 0 0 0 0 0 0 0 0 0 0 0 0 0 0 0 0 0 0 0 0
0 0 0 0 0 0 0 0 0 0 0 0 0 0 0 0 0 0 0 0 0 0 0 0 0 0 0 0 0 0 0 0 0 0 0 0 0 0 0 0 0 0 0 0 0 0 0 0 0
0 0 0 0 0 0 0 0 0 0 0 0 0 0 0 0 0 0 0 0 0 0 0 0 0 0 0 0 0 0 0 0 0 0 0 0 0 0 0 0 0 0 0 0 0 0 0 0 0
0 0 0 0 0 0 0 0 0 0 0 0 0 0 0 0 0 0 0 0 0 0 0 0 0 0 0 0 0 0 0 0 0 0 0 0 0 0 0 0 0 0 0 0 0 0 0 0 0
0 0 0 0 0 0 0 0 0 0 0 0 0 0 0 0 0 0 0 0 0 0 0 0 0 0 0 0 0 0 0 0 0 0 0 0 0 0 0 0 0 0 0 0 0 0 0 0 0
0 0 0 0 0 0 0 0 0 0 0 0 0 0 0 0 0 0 0 0 0 0 0 0 0 0 0 0 0 0 0 0 0 0 0 0 0 0 0 0 0 0 0 0 0 0 0 0 0
0 0 0 0 0 0 0 0 0 0 0 0 0 0 0 0 0 0 0 0 0 0 0 0 0 0 0 0 0 0 0 0 0 0 0 0 0 0 0 0 0 0 0 0 0 0 0 0 0
0 0 0 0 0 0 0 0 0 0 0 0 0 0 0 0 0 0 0 0 0 0 0 0 0 0 0 0 0 0 0 0 0 0 0 0 0 0 0 0 0 0 0 0 0 0 0 0 0
0 0 0 0 0 0 0 0 0 0 0 0 0 0 0 0 0 0 0 0 0 0 0 0 0 0 0 0 0 0 0 0 0 0 0 0 0 0 0 0 0 0 0 0 0 0 0 0 0
0 0 0 0 0 0 0 0 0 0 0 0 0 0 0 0 0 0 0 0 0 0 0 0 0 0 0 0 0 0 0 0 0 0 0 0 0 0 0 0 0 0 0 0 0 0 0 0 0
0 0 0 0 0 0 0 0 0 0 0 0 0 0 0 0 0 0 0 0 0 0 0 0 0 0 0 0 0 0 0 0 0 0 0 0 0 0 0 0 0 0 0 0 0 0 0 0 0
Height
5813 5815 5816 5817 5818 5819 5821 5824 5826 5826 5827 5829 5830 5831 5832 5834 5836 5839 5839 5838 5839 5840 5842 5842 5843 5844 5845 5846 5847 5848 5849 5849 5850 5851 5852 5852 5853 5853 5854 5854 5855 5855 5856 5856 5857 5857 5858 5858 5859
5808 5810 5811 5812 5813 5815 5818 5820 5821 5822 5823 5824 5825 5826 5828 5829 5831 5833 5834 5834 5835 5837 5838 5839 5840 5841 5842 5843 5844 5845 5846 5847 5847 5848 5849 5849 5850 5850 5851 5851 5852 5852 5853 5853 5854 5854 5855 5856 5856
5803 5804 5806 5806 5807 5811 5814 5816 5816 5817 5818 5819 5820 5822 5824 5825 5827 5829 5830 5831 5832 5833 5835 5836 5837 5838 5839 5840 5841 5842 5843 5843 5844 5844 5845 5846 5846 5847 5847 5848 5848 5849 5849 5850 5850 5851 5852 5852 5853
5798 5799 5800 5801 5803 5807 5808 5810 5810 5811 5813 5814 5815 5817 5819 5821 5822 5824 5825 5827 5828 5829 5830 5832 5833 5834 5835 5836 5837 5838 5839 5840 5840 5841 5841 5842 5842 5843 5843 5844 5845 5845 5846 5846 5847 5847 5848 5849 5849
5791 5792 5793 5795 5798 5801 5802 5803 5804 5805 5807 5808 5810 5812 5813 5815 5817 5819 5820 5822 5824 5825 5826 5827 5829 5830 5831 5832 5833 5834 5835 5836 5836 5837 5837 5838 5838 5839 5839 5840 5840 5841 5842 5842 5843 5844 5844 5845 5845
5785 5786 5787 5789 5792 5794 5796 5797 5798 5799 5801 5802 5804 5806 5808 5810 5812 5814 5815 5817 5819 5820 5821 5823 5824 5825 5826 5827 5829 5830 5830 5831 5832 5832 5833 5834 5834 5835 5835 5835 5836 5837 5837 5838 5839 5840 5840 5841 5841
5778 5778 5780 5782 5785 5787 5790 5790 5791 5792 5794 5796 5797 5799 5802 5804 5806 5808 5810 5811 5813 5815 5816 5818 5819 5820 5822 5823 5824 5825 5826 5826 5827 5828 5828 5829 5829 5830 5830 5830 5831 5832 5832 5833 5834 5835 5835 5836 5837
5769 5771 5772 5775 5777 5780 5782 5782 5784 5785 5787 5788 5790 5793 5795 5797 5799 5802 5804 5806 5807 5809 5811 5813 5814 5815 5817 5818 5819 5820 5820 5821 5822 5822 5823 5824 5824 5825 5825 5825 5826 5826 5827 5828 5829 5830 5830 5831 5832
5761 5763 5765 5768 5770 5772 5773 5774 5776 5777 5779 5781 5783 5785 5788 5790 5792 5795 5797 5799 5801 5803 5805 5807 5808 5810 5811 5812 5813 5814 5815 5816 5817 5817 5818 5818 5819 5819 5820 5820 5820 5821 5822 5823 5824 5825 5825 5826 5827
5752 5754 5758 5760 5761 5763 5764 5766 5768 5769 5771 5773 5775 5778 5780 5782 5785 5788 5790 5793 5795 5797 5798 5800 5802 5803 5805 5806 5807 5808 5809 5810 5811 5811 5812 5813 5813 5814 5814 5815 5815 5816 5817 5817 5818 5819 5820 5821 5821
5744 5746 5749 5750 5751 5753 5755 5757 5759 5761 5764 5766 5768 5770 5772 5775 5777 5780 5782 5785 5787 5789 5791 5793 5795 5796 5798 5800 5801 5802 5803 5804 5805 5805 5806 5807 5807 5808 5808 5809 5810 5810 5811 5812 5813 5813 5814 5815 5816
5735 5737 5739 5740 5742 5743 5746 5748 5750 5752 5756 5757 5759 5761 5764 5766 5769 5771 5774 5777 5779 5781 5783 5785 5787 5789 5791 5793 5794 5796 5797 5798 5798 5799 5800 5800 5801 5802 5802 5803 5803 5804 5805 5806 5807 5808 5808 5809 5810
5725 5728 5729 5730 5732 5734 5736 5738 5741 5744 5747 5748 5750 5752 5755 5757 5760 5762 5765 5768 5771 5773 5776 5777 5779 5781 5783 5785 5787 5789 5790 5791 5792 5792 5793 5794 5795 5795 5796 5797 5797 5798 5799 5800 5801 5801 5802 5803 5804
5716 5717 5718 5720 5721 5724 5726 5729 5731 5735 5737 5739 5740 5743 5745 5748 5750 5753 5756 5759 5762 5764 5767 5769 5771 5773 5775 5777 5779 5781 5782 5784 5784 5785 5786 5787 5788 5789 5789 5790 5791 5792 5793 5794 5795 5795 5796 5797 5797
5706 5707 5709 5710 5712 5714 5716 5719 5723 5725 5726 5729 5731 5733 5735 5738 5740 5743 5746 5749 5752 5754 5757 5759 5762 5764 5766 5769 5771 5773 5774 5776 5777 5778 5779 5780 5780 5781 5782 5783 5784 5785 5786 5787 5788 5789 5789 5790 5791
5697 5698 5699 5702 5702 5703 5706 5710 5713 5713 5715 5718 5720 5722 5724 5727 5729 5732 5735 5738 5741 5744 5747 5749 5752 5755 5757 5760 5761 5763 5766 5767 5769 5770 5771 5772 5773 5774 5775 5776 5777 5778 5779 5780 5781 5782 5782 5783 5784
5688 5689 5690 5692 5692 5693 5694 5699 5703 5702 5704 5707 5709 5711 5713 5715 5718 5721 5724 5727 5730 5733 5736 5739 5742 5745 5748 5750 5752 5754 5756 5759 5760 5761 5763 5764 5765 5766 5767 5768 5769 5770 5772 5773 5774 5775 5776 5776 5777
5679 5680 5680 5681 5682 5682 5684 5688 5691 5691 5693 5695 5698 5699 5702 5704 5707 5709 5712 5715 5719 5722 5725 5728 5732 5735 5738 5740 5742 5745 5747 5749 5751 5752 5754 5755 5756 5758 5759 5760 5761 5763 5764 5766 5767 5768 5768 5769 5770
5670 5670 5670 5672 5671 5672 5673 5677 5680 5680 5681 5684 5686 5688 5691 5693 5696 5698 5701 5704 5707 5711 5714 5717 5721 5724 5727 5730 5733 5735 5737 5739 5741 5743 5745 5746 5748 5749 5750 5752 5753 5755 5756 5757 5759 5760 5761 5762 5763
5660 5660 5661 5662 5662 5661 5663 5666 5668 5669 5670 5673 5675 5678 5680 5683 5685 5687 5690 5693 5696 5700 5703 5706 5710 5714 5717 5720 5722 5725 5727 5729 5731 5733 5735 5737 5738 5740 5742 5743 5745 5746 5748 5749 5750 5752 5753 5754 5755
5652 5651 5652 5652 5653 5652 5652 5655 5658 5659 5660 5662 5665 5667 5670 5672 5675 5677 5679 5682 5686 5689 5692 5696 5699 5703 5706 5709 5712 5714 5716 5718 5721 5723 5725 5727 5729 5731 5732 5734 5736 5737 5739 5740 5742 5743 5744 5745 5746
5643 5643 5643 5642 5643 5643 5644 5643 5649 5650 5651 5653 5655 5658 5660 5662 5664 5667 5669 5672 5675 5678 5681 5685 5688 5692 5695 5698 5701 5704 5706 5708 5710 5712 5714 5716 5718 5721 5723 5725 5726 5728 5730 5732 5733 5734 5735 5737 5737
5635 5635 5635 5634 5634 5635 5636 5635 5639 5641 5642 5644 5647 5649 5651 5653 5655 5657 5659 5662 5665 5668 5671 5674 5677 5681 5684 5687 5689 5692 5695 5697 5699 5701 5703 5705 5708 5710 5713 5715 5717 5719 5721 5722 5724 5725 5726 5728 5728
5627 5627 5627 5627 5626 5627 5629 5628 5630 5633 5634 5636 5638 5640 5641 5644 5646 5648 5650 5652 5655 5658 5661 5664 5667 5670 5673 5676 5678 5681 5684 5686 5688 5691 5693 5695 5697 5700 5702 5705 5707 5709 5711 5713 5715 5716 5717 5718 5719
5620 5620 5620 5619 5619 5620 5622 5621 5624 5625 5626 5627 5629 5631 5633 5635 5637 5639 5641 5643 5645 5648 5651 5654 5657 5660 5662 5665 5667 5670 5673 5675 5678 5680 5683 5685 5687 5690 5693 5695 5698 5700 5702 5704 5705 5707 5708 5709 5710
5613 5614 5614 5613 5613 5614 5615 5615 5618 5618 5619 5620 5622 5623 5625 5627 5628 5630 5632 5634 5637 5639 5642 5644 5647 5650 5652 5655 5657 5659 5662 5665 5667 5670 5672 5675 5677 5680 5683 5685 5688 5690 5693 5694 5696 5697 5698 5699 5700
5606 5607 5608 5607 5607 5607 5608 5609 5611 5612 5612 5613 5615 5616 5618 5619 5621 5623 5624 5626 5628 5630 5633 5635 5638 5641 5643 5645 5647 5649 5652 5654 5657 5660 5662 5664 5667 5670 5673 5675 5678 5681 5683 5685 5686 5687 5688 5689 5690
5600 5600 5601 5600 5600 5600 5601 5603 5605 5605 5606 5607 5607 5608 5610 5611 5613 5615 5616 5618 5620 5622 5624 5627 5629 5632 5633 5635 5637 5639 5642 5644 5647 5650 5652 5655 5658 5661 5663 5666 5668 5671 5673 5674 5676 5677 5678 5679 5680
5593 5594 5593 5593 5593 5593 5593 5598 5598 5598 5598 5599 5600 5601 5602 5603 5604 5606 5608 5610 5612 5614 5616 5618 5621 5622 5624 5626 5628 5630 5632 5634 5637 5640 5643 5645 5648 5651 5654 5656 5659 5661 5663 5664 5665 5666 5667 5668 5669
5585 5586 5586 5586 5586 5586 5586 5591 5591 5590 5591 5591 5592 5593 5594 5595 5597 5598 5600 5602 5604 5606 5607 5610 5612 5613 5615 5617 5618 5621 5623 5625 5628 5630 5633 5636 5639 5642 5644 5647 5649 5651 5652 5653 5655 5656 5657 5658 5658
Wind_Speed
24 25 26 26 27 27 24 22 21 22 23 21 21 20 20 19 19 18 18 17 17 17 17 16 16 16 15 15 15 15 16 16 16 17 16 16 17 17 18 18 18 17 17 17 17 16 16 16 15
26 26 27 28 29 27 24 22 22 23 23 23 23 22 21 21 20 19 18 18 18 18 18 17 17 17 16 16 16 16 17 17 17 18 18 18 18 18 19 19 19 19 18 18 18 18 17 17 16
27 27 28 29 28 26 23 22 23 24 24 25 24 24 23 23 22 21 20 19 19 19 19 18 18 18 18 17 18 18 18 18 19 19 20 20 20 19 20 20 20 20 20 19 20 20 19 18 18
28 29 30 30 28 25 24 24 25 26 26 26 26 25 24 24 24 23 22 22 21 20 19 19 19 19 19 19 19 19 19 19 20 21 21 21 21 21 21 21 21 21 21 21 20 20 20 20 19
30 31 31 31 28 26 26 26 27 27 27 28 27 27 26 26 25 25 24 23 22 22 21 21 20 20 20 20 20 20 21 21 21 22 22 22 22 22 22 22 23 23 22 22 22 21 21 20 20
31 32 32 31 29 28 28 28 28 28 29 29 29 28 28 28 27 27 26 25 24 23 23 23 22 22 22 22 22 21 22 22 23 23 23 23 23 23 23 24 24 24 24 24 24 23 22 22 21
32 33 33 32 31 30 30 30 30 30 30 30 31 31 30 29 29 28 28 27 26 26 25 25 24 24 23 23 23 23 23 23 23 24 24 24 24 24 24 25 25 25 25 25 25 25 24 23 23
32 34 33 32 32 31 31 31 31 31 30 31 32 32 31 31 31 30 29 29 28 28 28 27 27 26 25 25 25 25 25 25 25 25 25 25 25 25 26 26 26 25 26 26 26 25 25 25 24
33 34 33 32 32 32 32 32 31 32 31 32 32 32 31 31 31 31 31 31 30 30 29 29 29 28 28 27 27 27 26 27 26 26 26 27 26 26 26 26 27 26 27 27 26 26 26 25 25
34 34 32 32 32 33 33 33 32 32 33 33 33 32 32 32 32 32 32 32 31 31 31 30 30 30 29 29 28 28 27 28 28 28 28 28 28 28 27 27 28 28 28 28 27 27 27 27 27
34 34 33 33 34 34 35 35 35 34 34 35 35 34 34 35 34 33 33 33 33 33 33 32 32 31 31 30 29 29 28 28 28 28 28 28 29 29 28 28 28 29 28 28 28 29 28 28 28
34 33 34 34 35 36 36 36 35 35 35 36 36 36 36 36 37 36 35 35 34 34 34 34 34 33 32 32 31 30 30 29 29 29 29 28 29 29 29 29 28 28 28 28 28 29 29 29 28
34 34 35 36 36 36 37 37 36 36 36 37 38 38 37 37 38 38 37 36 36 36 36 36 36 35 34 34 33 33 32 31 31 31 30 29 29 29 29 29 28 28 28 28 28 29 30 29 29
34 34 35 37 37 37 38 38 37 36 37 38 39 39 40 40 40 40 40 39 38 38 38 38 37 36 36 36 35 35 34 33 32 32 32 32 31 31 31 31 30 30 30 30 29 30 31 31 31
33 34 35 36 37 39 40 39 37 37 39 40 40 41 42 42 42 42 42 42 41 40 39 39 39 38 37 37 36 36 36 35 34 34 34 34 33 33 32 32 32 31 31 31 31 31 31 31 32
33 34 35 35 37 39 41 40 38 39 40 40 41 42 43 44 43 43 43 42 42 42 41 40 39 39 38 38 38 37 37 37 36 36 36 35 35 34 34 34 34 34 33 33 33 33 32 31 32
33 34 34 34 36 38 41 41 40 40 42 42 42 42 43 44 43 42 42 43 43 42 42 42 41 40 40 39 39 38 38 38 37 37 37 37 36 36 35 35 35 35 35 34 34 34 33 32 32
33 34 34 35 36 38 40 41 40 42 42 42 42 42 42 43 43 43 42 43 43 43 43 43 42 41 41 41 40 39 39 38 38 37 37 37 37 36 36 35 36 36 35 34 34 34 34 33 32
33 33 35 35 37 39 40 40 39 40 42 41 40 40 41 41 42 42 43 42 43 43 43 43 42 42 41 41 41 40 39 39 38 38 38 38 37 37 37 37 36 36 36 36 35 35 35 34 34
33 33 34 34 36 38 39 39 38 38 39 39 39 39 40 40 40 41 43 42 42 43 42 43 43 43 42 42 42 41 40 40 39 39 39 38 38 37 37 37 37 36 37 37 37 37 37 37 37
33 34 34 34 35 36 38 39 36 35 37 38 39 38 38 38 39 40 41 42 41 41 41 42 42 43 43 43 43 43 41 41 41 40 40 40 39 38 38 38 37 37 37 38 37 37 37 37 37
32 32 32 32 33 33 35 36 33 32 34 35 37 37 37 37 38 38 40 40 39 39 40 41 42 42 43 43 43 42 42 42 41 40 40 40 40 39 39 38 38 37 37 37 38 38 39 39 39
30 29 30 30 31 31 31 33 30 30 31 32 33 35 35 36 36 36 37 38 39 38 39 40 40 41 42 43 42 42 41 41 41 40 40 40 40 40 39 39 39 38 38 38 38 39 39 40 39
28 28 28 28 29 29 28 30 28 26 28 29 31 32 34 34 35 34 35 36 37 38 39 40 39 40 40 42 42 41 40 40 40 39 40 40 40 40 40 40 40 39 39 38 39 38 39 39 39
27 27 27 28 28 27 26 28 26 25 26 27 29 31 31 31 32 33 34 35 35 36 37 38 37 37 38 39 40 40 40 40 40 39 40 40 39 40 40 40 40 39 39 39 38 38 39 39 39
25 25 26 26 27 26 26 27 26 25 25 26 27 29 29 30 30 31 32 33 34 34 35 36 35 35 36 38 39 40 41 41 40 39 39 40 40 40 41 41 40 40 40 39 38 38 39 39 40
24 24 25 25 26 27 27 27 26 25 25 26 26 27 28 28 28 29 30 31 31 32 33 34 34 35 35 36 38 40 40 41 40 40 39 39 40 40 41 41 40 40 40 40 39 39 39 40 40
25 25 25 25 27 28 28 27 26 25 25 25 25 26 26 28 28 29 29 29 30 31 32 33 33 34 34 35 36 38 38 39 40 39 38 38 38 39 39 40 40 41 41 40 40 40 40 41 41
24 25 26 27 28 28 27 26 25 24 24 25 25 27 27 28 29 29 29 29 30 31 31 31 32 33 33 34 35 36 37 38 38 39 38 38 38 38 39 39 40 40 41 41 41 41 41 41 41
26 25 25 27 27 28 28 25 23 24 25 26 26 26 27 28 29 29 29 30 30 30 30 31 31 32 32 33 34 36 37 37 37 38 38 37 38 38 38 40 40 40 40 41 41 41 41 41 41
Wind_Direction
250 249 247 246 246 247 247 246 245 244 243 242 243 243 243 242 242 244 244 246 247 247 247 247 247 247 250 252 252 252 251 252 253 255 257 258 257 256 255 254 253 253 252 253 254 254 254 255 257
250 250 249 248 247 248 248 246 245 244 243 243 243 243 242 241 242 244 244 245 248 249 249 249 249 250 251 252 252 254 254 254 255 256 258 259 259 258 257 256 255 253 252 253 254 255 255 255 257
251 250 250 250 249 249 249 247 246 245 244 244 244 243 242 242 243 244 244 245 247 249 250 250 250 251 252 251 253 254 255 256 255 256 258 259 259 259 258 256 255 254 254 255 255 255 256 256 257
251 251 250 250 250 250 250 248 247 245 244 245 245 245 244 244 244 245 246 246 248 249 250 251 252 252 252 252 253 254 255 257 257 256 257 258 259 259 259 257 255 256 255 256 256 255 257 258 258
253 252 252 251 250 249 249 249 249 248 246 245 245 244 244 244 245 245 246 248 249 250 251 252 252 253 254 254 254 254 255 256 258 258 258 258 260 261 259 257 256 256 256 256 257 256 256 258 260
254 254 253 253 252 250 249 250 249 249 247 246 247 246 245 245 246 246 246 248 249 250 251 252 253 254 255 255 255 256 257 258 258 258 258 258 259 261 260 258 256 256 256 256 256 256 257 257 258
256 255 254 254 253 251 250 250 250 249 248 247 247 247 247 247 247 247 247 248 248 249 250 252 253 254 255 256 256 256 257 258 259 259 258 258 259 260 261 260 258 257 258 257 256 255 256 257 258
257 256 255 254 253 251 250 251 251 250 248 248 248 248 248 248 248 247 247 248 248 249 250 252 253 254 256 257 257 258 258 259 260 260 258 258 258 259 259 260 259 258 257 257 257 256 257 257 257
257 256 256 255 254 252 251 251 251 251 249 247 248 249 248 248 248 248 247 248 248 250 251 251 252 254 256 257 257 258 259 259 260 260 261 260 258 258 259 259 259 258 257 257 257 256 256 257 257
256 257 256 254 253 252 251 251 250 250 249 248 248 248 248 248 248 248 248 248 248 249 249 251 252 254 255 256 258 259 260 260 260 261 261 261 259 258 259 258 258 259 258 257 257 257 257 258 259
256 256 254 252 251 250 251 250 249 249 249 249 249 248 248 249 249 249 250 250 250 249 249 250 251 253 254 255 256 257 259 260 261 261 260 260 260 258 258 258 257 258 258 257 256 257 257 259 261
258 255 253 252 251 250 250 250 249 250 250 250 250 249 249 249 250 251 250 250 250 249 249 250 251 251 253 254 255 256 257 259 260 261 260 260 260 259 258 258 258 258 257 256 256 258 258 258 260
259 256 253 253 251 250 250 250 250 250 250 250 251 250 250 250 250 251 251 251 250 249 249 249 250 251 252 253 254 255 256 258 259 260 259 259 260 259 258 256 256 257 257 256 256 258 258 259 261
259 258 255 254 253 250 250 249 250 249 250 250 251 251 250 250 250 251 252 252 252 250 248 249 249 250 252 252 253 255 255 256 258 258 259 259 259 259 258 256 255 256 257 258 258 259 259 259 261
258 258 256 254 253 251 250 249 250 250 250 250 251 252 252 251 250 250 251 251 252 251 248 247 248 249 250 252 253 254 255 256 257 258 259 259 259 259 258 256 255 255 257 259 259 260 260 259 261
259 258 257 256 254 252 251 250 250 251 251 251 251 251 252 251 250 250 249 249 249 250 248 247 247 248 249 250 252 253 255 256 257 258 258 259 259 259 257 257 256 256 257 258 259 261 261 260 261
260 260 260 258 256 254 253 252 252 253 253 253 253 252 252 251 250 249 249 247 248 248 248 247 247 247 248 249 251 253 254 255 256 257 257 257 258 258 257 256 257 257 257 258 259 260 261 260 261
265 263 261 260 257 256 255 253 252 254 254 254 253 252 252 251 251 250 248 247 248 248 247 247 247 247 247 249 250 252 253 253 255 256 256 257 257 257 256 256 257 258 258 258 259 260 260 260 261
266 265 263 261 260 259 257 255 255 255 254 252 251 250 250 250 251 250 248 247 247 247 247 246 245 246 246 248 249 252 252 252 253 255 255 256 256 255 255 255 256 257 257 257 258 260 260 260 260
266 266 264 262 261 261 259 257 256 255 252 250 250 250 250 251 250 250 248 247 247 246 246 246 246 246 246 247 248 251 252 253 253 253 254 254 254 254 254 254 255 256 258 257 257 259 259 260 260
266 266 266 265 263 263 262 259 255 255 252 251 250 249 249 251 251 250 250 247 247 246 246 246 246 246 247 248 249 250 253 254 252 253 253 253 253 252 253 253 255 256 258 257 257 258 259 260 261
268 267 267 265 263 263 262 263 255 254 252 251 249 249 250 251 250 250 251 248 247 245 245 245 246 247 248 249 250 250 253 252 252 252 252 252 252 251 251 252 253 256 257 257 257 259 260 261 263
268 266 264 263 264 263 261 263 258 256 252 250 249 250 251 252 251 251 250 249 247 246 246 246 247 248 248 249 250 250 250 251 250 250 250 249 249 249 249 251 252 254 256 258 259 260 261 262 262
266 264 262 262 262 262 260 262 261 260 256 253 251 251 251 251 250 249 248 249 249 248 246 246 249 249 248 248 249 247 248 249 249 249 248 247 248 247 248 250 252 253 256 258 260 261 262 262 263
262 261 261 263 262 263 259 261 262 260 255 252 252 252 253 253 251 250 250 249 249 248 246 245 247 248 247 247 247 246 246 247 248 249 248 248 247 247 248 250 251 253 255 258 259 261 262 263 263
262 261 262 266 266 266 262 261 263 261 258 254 253 253 254 254 253 252 252 250 249 247 246 245 247 248 248 248 247 246 247 247 248 248 247 248 247 247 248 249 251 253 255 257 259 261 262 263 264
261 261 262 266 266 266 265 264 263 260 259 256 253 253 254 254 252 252 250 249 248 248 248 247 248 248 248 249 249 248 248 249 249 249 248 248 247 247 248 249 251 253 256 258 261 262 263 264 265
261 261 261 263 266 268 268 267 265 260 259 258 255 253 254 253 251 250 248 248 249 250 250 247 248 249 250 250 250 249 249 250 249 247 247 248 248 248 249 250 252 255 257 259 261 262 264 265 266
261 259 258 260 263 265 267 267 264 262 260 258 254 254 255 253 249 249 248 249 250 251 250 248 248 249 251 251 251 250 250 250 250 248 248 248 250 250 250 252 254 256 258 259 261 263 264 265 267
260 258 259 260 261 261 264 266 264 262 260 260 257 256 254 252 249 249 250 250 250 250 249 248 248 248 250 251 251 251 250 250 251 249 249 249 250 251 252 254 255 257 258 260 262 263 264 266 267